[[{"header":{"parameterUnit":"m.s-1","parameterCategory":1,"la1":30.2991,"la2":30.254,"lo1":-89.0895,"lo2":-89.0444,"dy":0.0017,"dx":0.0017,"nx":28,"ny":28,"refTime":"2024-09-01T09:00:00:Z","depth":0,"parameterNumber":2,"parameterNumberName":"U-component_of_WINDS"},"data":[0,0,0,0,0,0,0,0,0,0,0,0,0,0,0,0,0,0,0,0,0,0,0,0,0,0,0,0,0,0,0,0,0,0,0,0,0,0,0,0,0,0,0,0,0,0,0,0,0,0,0,0,0,0,0,0,0,0,-0.6527,-0.6525,0,-0.6414,-0.6413,-0.6412,-0.6401,-0.6402,-0.6404,-0.6405,-0.629,-0.6286,-0.6282,0,0,0,0,0,0,0,0,0,0,0,0,0,-0.6734,-0.673,-0.6527,-0.6525,-0.6524,-0.6415,-0.6413,-0.6412,-0.6401,-0.6403,-0.6404,-0.6405,-0.6292,-0.6287,-0.6282,0,0,0,0,0,0,0,0,0,0,0,0,0,-0.6635,-0.6729,-0.6527,-0.6505,-0.6502,-0.6415,-0.6413,-0.6411,-0.6401,-0.6403,-0.6404,-0.6406,-0.6293,-0.6287,-0.6281,-0.6207,0,0,-0.6262,-0.6259,0,0,0,0,0,0,0,0,-0.6641,-0.6628,-0.651,-0.6507,-0.6503,-0.6424,-0.6444,-0.6343,-0.64,-0.6439,-0.6405,-0.6407,-0.6333,-0.6324,-0.6299,-0.6202,-0.6197,-0.6262,-0.6258,-0.6255,-0.6253,0,0,0,0,0,0,0,-0.6648,-0.6632,-0.6482,-0.6508,-0.6504,-0.6502,-0.649,-0.6425,-0.6378,-0.6436,-0.6435,-0.6422,-0.6332,-0.6305,-0.6296,-0.6195,-0.6262,-0.6256,-0.6252,-0.625,-0.6035,-0.6034,0,0,0,0,0,0,-0.6658,-0.6638,-0.6486,-0.6479,-0.6578,-0.6497,-0.6483,-0.6447,-0.6378,-0.637,-0.6421,-0.6422,-0.6315,-0.6303,-0.6292,-0.6203,-0.6255,-0.6249,-0.6246,-0.6037,-0.6035,-0.6033,0,0,0,0,0,0,-0.6663,-0.6645,-0.649,-0.6558,-0.6538,-0.6492,-0.6451,-0.6444,-0.6417,-0.6367,-0.6358,-0.6402,-0.6316,-0.6301,-0.6229,-0.6199,-0.6247,-0.6241,-0.604,-0.6037,-0.6034,-0.6023,0,0,0,0,0,0,-0.6669,-0.6646,-0.6617,-0.6558,-0.6535,-0.6428,-0.6449,-0.6441,-0.6407,-0.6407,-0.6347,-0.6338,-0.6316,-0.6239,-0.6223,-0.6191,-0.6236,-0.6042,-0.6038,-0.6035,-0.6026,-0.602,-0.6015,0,0,0,0,0,-0.6676,-0.6618,-0.6616,-0.6598,-0.6497,-0.6427,-0.6414,-0.6389,-0.6404,-0.6375,-0.6343,-0.634,-0.6205,-0.6231,-0.6214,-0.618,-0.6044,-0.6039,-0.6035,-0.6029,-0.6022,-0.6016,0,0,0,0,0,0,-0.6675,-0.661,-0.6607,-0.6527,-0.6483,-0.6425,-0.6387,-0.6382,-0.6332,-0.6334,-0.6306,-0.6292,-0.6222,-0.6194,-0.6224,-0.6106,-0.6126,-0.6118,-0.6127,-0.612,-0.6115,-0.6123,-0.6231,0,0,0,0,0,-0.6666,-0.6614,-0.656,-0.6495,-0.6473,-0.6434,-0.6402,-0.6387,-0.634,-0.6321,-0.6283,-0.6238,-0.6185,-0.6151,-0.6099,-0.6022,-0.601,-0.599,-0.5985,-0.5981,-0.5974,-0.5934,-0.5925,-0.6018,-0.6018,-0.6018,0,0,-0.6646,-0.6604,-0.6573,-0.6494,-0.6458,-0.6405,-0.6418,-0.6361,-0.6323,-0.6312,-0.6243,-0.6214,-0.6161,-0.6087,-0.6052,-0.6061,-0.5946,-0.5975,-0.5972,-0.5968,-0.5928,-0.5919,-0.5912,-0.6015,-0.6016,-0.6016,0,0,-0.6583,-0.6545,-0.6489,-0.6452,-0.6397,-0.6372,-0.6359,-0.6302,-0.6282,-0.6212,-0.6204,-0.6158,-0.6067,-0.6031,-0.6,-0.5926,-0.5923,-0.591,-0.5882,-0.5843,-0.5836,-0.5829,-0.5804,-0.5796,-0.5904,-0.5904,-0.5904,0,-0.6565,-0.6485,-0.646,-0.6404,-0.6371,-0.6359,-0.6303,-0.6269,-0.62,-0.6177,-0.6188,-0.6076,-0.6039,-0.5957,-0.594,-0.5915,-0.59,-0.5917,-0.5839,-0.5832,-0.5825,-0.5801,-0.5792,-0.5903,-0.5903,-0.5903,-0.5903,0,-0.6467,-0.6412,-0.6373,-0.6307,-0.6269,-0.6213,-0.618,-0.6145,-0.6134,-0.6108,-0.6038,-0.5994,-0.5935,-0.5914,-0.5902,-0.5832,-0.5839,-0.5844,-0.5864,-0.5816,-0.5793,-0.5783,-0.5901,-0.5902,-0.5902,-0.5902,0,0,-0.6399,-0.6322,-0.6308,-0.6279,-0.6218,-0.6176,-0.612,-0.6062,-0.6033,-0.5987,-0.594,-0.5865,-0.587,-0.5836,-0.582,-0.5786,-0.5732,-0.5796,-0.5794,-0.5787,-0.5654,-0.5651,-0.5641,-0.573,-0.5728,-0.5726,-0.5659,0,-0.6331,-0.623,-0.6207,-0.6122,-0.6071,-0.6061,-0.6013,-0.5971,-0.5946,-0.5901,-0.5874,-0.5821,-0.5831,-0.5811,-0.5776,-0.5746,-0.5705,-0.5751,-0.5687,-0.5685,-0.5702,-0.5628,-0.5624,-0.5563,-0.565,-0.5648,-0.5647,0,-0.6236,-0.6188,-0.6098,-0.6046,-0.6024,-0.5981,-0.5928,-0.5884,-0.5837,-0.5822,-0.5785,-0.5773,-0.5716,-0.5739,-0.5661,-0.5692,-0.5665,-0.5647,-0.5644,-0.5638,-0.5664,-0.5621,-0.5542,-0.5533,-0.5632,-0.5633,-0.5634,0,-0.6198,-0.6111,-0.6046,-0.6021,-0.5959,-0.5929,-0.5902,-0.5857,-0.5824,-0.5778,-0.5757,-0.5704,-0.5676,-0.5636,-0.5611,-0.5629,-0.5536,-0.5556,-0.5523,-0.5523,-0.5504,-0.5505,-0.542,-0.5485,-0.5485,-0.5485,-0.5485,0,-0.6124,-0.6069,-0.6028,-0.5988,-0.5928,-0.5902,-0.5843,-0.5816,-0.5777,-0.5732,-0.572,-0.5679,-0.5649,-0.5604,-0.5584,-0.5524,-0.5511,-0.5498,-0.5493,-0.5499,-0.5501,-0.5481,-0.5486,-0.5483,-0.5483,-0.5484,-0.5484,0,-0.6071,-0.6041,-0.597,-0.5917,-0.5902,-0.586,-0.5815,-0.5777,-0.5753,-0.5697,-0.5683,-0.5644,-0.5591,-0.5563,-0.5496,-0.5483,-0.5416,-0.5413,-0.5432,-0.543,-0.5399,-0.5403,-0.5299,-0.5285,-0.5358,-0.5357,-0.5357,0,-0.6026,-0.5984,-0.5927,-0.5896,-0.5869,-0.5819,-0.5787,-0.5761,-0.5727,-0.5672,-0.5641,-0.5588,-0.5543,-0.5459,-0.5426,-0.5376,-0.5372,-0.534,-0.5365,-0.5373,-0.5374,-0.5377,-0.5374,-0.5335,-0.5335,-0.5334,-0.5334,0,-0.595,-0.5938,-0.589,-0.5839,-0.58,-0.5758,-0.5716,-0.5692,-0.566,-0.5623,-0.5569,-0.5534,-0.5467,-0.5415,-0.5362,-0.5335,-0.533,-0.5326,-0.5316,-0.5322,-0.5335,-0.5329,-0.5421,-0.5329,-0.5329,-0.533,-0.533,-0.533,-0.59,-0.5863,-0.5818,-0.5767,-0.5733,-0.5695,-0.5657,-0.5628,-0.5582,-0.5525,-0.5513,-0.5456,-0.5413,-0.5342,-0.5314,-0.527,-0.5277,-0.5262,-0.5258,-0.5255,-0.5255,-0.5342,-0.526,-0.5261,-0.5261,-0.5261,-0.5261,0,-0.5825,-0.5796,-0.5749,-0.5691,-0.5652,-0.565,-0.5604,-0.5571,-0.5521,-0.5481,-0.5438,-0.5377,-0.5327,-0.5291,-0.524,-0.5212,-0.5208,-0.52,-0.5202,-0.5196,-0.5251,-0.5265,-0.5204,-0.5204,-0.5204,-0.5204,-0.5204,-0.5204,-0.5781,-0.5719,-0.5702,-0.5624,-0.5595,-0.554,-0.5514,-0.548,-0.5448,-0.538,-0.5338,-0.5315,-0.5277,-0.5224,-0.5178,-0.5169,-0.5152,-0.5143,-0.5134,-0.5186,-0.5192,-0.5198,-0.5212,-0.5139,-0.5139,-0.5083,-0.5083,-0.5082]},{"header":{"parameterUnit":"m.s-1","parameterCategory":1,"la1":30.2991,"la2":30.254,"lo1":-89.0895,"lo2":-89.0444,"dy":0.0017,"dx":0.0017,"nx":28,"ny":28,"refTime":"2024-09-01T09:00:00:Z","depth":0,"parameterNumber":3,"parameterNumberName":"V-component_of_WINDS"},"data":[0,0,0,0,0,0,0,0,0,0,0,0,0,0,0,0,0,0,0,0,0,0,0,0,0,0,0,0,0,0,0,0,0,0,0,0,0,0,0,0,0,0,0,0,0,0,0,0,0,0,0,0,0,0,0,0,0,0,1.0414,1.0414,0,1.0402,1.0402,1.0402,1.0346,1.0345,1.0344,1.0342,1.033,1.033,1.0331,0,0,0,0,0,0,0,0,0,0,0,0,0,1.0386,1.0387,1.0414,1.0414,1.0414,1.0402,1.0402,1.0402,1.0346,1.0345,1.0343,1.0342,1.0329,1.033,1.0331,0,0,0,0,0,0,0,0,0,0,0,0,0,1.0389,1.0388,1.0414,1.0385,1.0382,1.0403,1.0402,1.0402,1.0347,1.0345,1.0343,1.0341,1.0329,1.033,1.0332,1.0379,0,0,1.0336,1.0336,0,0,0,0,0,0,0,0,1.0389,1.039,1.0389,1.0387,1.0384,1.0374,1.0388,1.0394,1.0347,1.036,1.0342,1.034,1.0346,1.0346,1.0348,1.0379,1.0378,1.0336,1.0337,1.0337,1.0337,0,0,0,0,0,0,0,1.0389,1.039,1.041,1.0389,1.0386,1.0371,1.037,1.0389,1.0364,1.0359,1.0355,1.0354,1.0344,1.0347,1.0347,1.0378,1.0336,1.0337,1.0338,1.0338,1.0443,1.0445,0,0,0,0,0,0,1.0393,1.0391,1.041,1.0409,1.0382,1.0374,1.0372,1.0379,1.0364,1.036,1.0356,1.0352,1.0345,1.0346,1.0346,1.0398,1.0337,1.0338,1.0339,1.0442,1.0444,1.0446,0,0,0,0,0,0,1.0393,1.0395,1.041,1.0399,1.04,1.0376,1.0385,1.038,1.0382,1.0362,1.0357,1.0363,1.0344,1.0344,1.0371,1.0397,1.0339,1.034,1.0439,1.0442,1.0445,1.0504,0,0,0,0,0,0,1.0392,1.0396,1.0414,1.04,1.04,1.0436,1.0387,1.0381,1.0385,1.0379,1.0367,1.0363,1.0342,1.0369,1.0372,1.0398,1.0341,1.0437,1.0441,1.0444,1.05,1.0509,1.0516,0,0,0,0,0,1.0391,1.0432,1.0415,1.0418,1.0423,1.0437,1.0438,1.0413,1.0387,1.0405,1.0391,1.0364,1.0394,1.0372,1.0375,1.0402,1.0435,1.0439,1.0444,1.0496,1.0507,1.0516,0,0,0,0,0,0,1.045,1.0429,1.0411,1.0448,1.0445,1.0428,1.0449,1.0426,1.043,1.0425,1.0394,1.0391,1.0421,1.0415,1.039,1.0445,1.041,1.0415,1.0448,1.0459,1.0467,1.0467,1.0342,0,0,0,0,0,1.0468,1.0481,1.0462,1.0497,1.0496,1.0473,1.0479,1.046,1.0455,1.0454,1.0442,1.0438,1.0446,1.0453,1.046,1.0499,1.0494,1.0519,1.0527,1.0534,1.0538,1.0555,1.0565,1.0461,1.0461,1.0461,0,0,1.0503,1.0494,1.0504,1.0508,1.0504,1.0517,1.0473,1.049,1.0499,1.0456,1.0479,1.0471,1.0464,1.0496,1.051,1.0492,1.0566,1.054,1.0546,1.0546,1.0561,1.0571,1.058,1.0464,1.0463,1.0463,0,0,1.0575,1.057,1.0596,1.0593,1.0586,1.057,1.0577,1.0563,1.0555,1.0578,1.0545,1.0556,1.0572,1.0568,1.0568,1.0636,1.0609,1.0639,1.0682,1.0699,1.0707,1.0715,1.0736,1.0744,1.0644,1.0644,1.0644,0,1.062,1.0639,1.0613,1.0631,1.0633,1.0595,1.062,1.0618,1.0614,1.0615,1.0595,1.0612,1.0606,1.0635,1.0651,1.0654,1.0658,1.0639,1.0709,1.0715,1.0722,1.0741,1.075,1.0648,1.0647,1.0647,1.0646,0,1.0693,1.0708,1.073,1.0726,1.073,1.0752,1.0728,1.0736,1.0717,1.0703,1.0725,1.0716,1.0718,1.0724,1.0706,1.075,1.0738,1.0714,1.0677,1.0735,1.0753,1.0761,1.0652,1.0651,1.065,1.0649,0,0,1.08,1.0781,1.0789,1.0785,1.0775,1.0785,1.0805,1.0807,1.0812,1.0811,1.0825,1.0839,1.0815,1.0815,1.0797,1.0812,1.0862,1.0785,1.0784,1.0797,1.0906,1.0922,1.0932,1.0846,1.0847,1.0849,1.0906,0,1.0866,1.0898,1.0874,1.091,1.0921,1.0884,1.0901,1.0895,1.0883,1.089,1.0876,1.0885,1.0855,1.0854,1.0868,1.0853,1.0883,1.0849,1.0856,1.0857,1.0856,1.0942,1.0959,1.1014,1.0913,1.0914,1.0915,0,1.0946,1.0947,1.0983,1.0968,1.0971,1.0987,1.0986,1.0994,1.0986,1.0976,1.0975,1.0952,1.0968,1.0934,1.0955,1.0932,1.0934,1.0927,1.0928,1.0926,1.0887,1.0938,1.1031,1.1038,1.0926,1.0926,1.0925,0,1.1016,1.1027,1.1049,1.1048,1.1031,1.1042,1.1036,1.1026,1.1028,1.1028,1.1028,1.103,1.103,1.1032,1.1008,1.0986,1.1031,1.0996,1.1021,1.1021,1.103,1.1029,1.1121,1.1036,1.1036,1.1036,1.1036,0,1.1089,1.1112,1.1079,1.1093,1.1117,1.109,1.1114,1.1104,1.1095,1.1105,1.1075,1.1084,1.1054,1.1061,1.1043,1.1061,1.1062,1.1053,1.1047,1.1054,1.1054,1.1052,1.1046,1.1038,1.1038,1.1037,1.1037,0,1.117,1.115,1.1171,1.1153,1.1149,1.1168,1.1152,1.1163,1.1148,1.1161,1.1162,1.1139,1.1145,1.1122,1.1124,1.1112,1.1138,1.1128,1.114,1.1136,1.1161,1.1158,1.1252,1.1262,1.1174,1.1175,1.1176,0,1.1217,1.1234,1.1217,1.1221,1.1216,1.1224,1.1226,1.1199,1.1202,1.1194,1.1205,1.1208,1.1209,1.1219,1.1202,1.1203,1.119,1.1223,1.119,1.1195,1.1187,1.1185,1.1185,1.1229,1.123,1.1231,1.1232,0,1.1301,1.1289,1.1293,1.1293,1.1295,1.1294,1.1291,1.1296,1.1267,1.1272,1.1277,1.1277,1.1278,1.1281,1.1278,1.127,1.1245,1.1243,1.1248,1.1253,1.1258,1.1253,1.1156,1.124,1.1239,1.1239,1.1238,1.1238,1.1364,1.1375,1.1365,1.1369,1.1364,1.1361,1.1369,1.1356,1.1359,1.1358,1.1342,1.135,1.134,1.1333,1.1328,1.1332,1.1316,1.1325,1.1327,1.1328,1.1331,1.126,1.1332,1.1332,1.1332,1.1331,1.1331,0,1.1443,1.1434,1.1439,1.1434,1.1437,1.1415,1.1409,1.1413,1.1419,1.1413,1.1414,1.1418,1.142,1.1403,1.1402,1.1409,1.1397,1.1409,1.1407,1.1405,1.1347,1.1341,1.1418,1.1418,1.1418,1.1418,1.1418,1.1418,1.1484,1.1502,1.1489,1.1503,1.1494,1.1501,1.1499,1.1495,1.1489,1.1496,1.1497,1.1486,1.1474,1.1472,1.1472,1.1467,1.1466,1.1482,1.1472,1.1418,1.1409,1.1401,1.1395,1.1483,1.1483,1.1529,1.153,1.153]}]]